Location: Morlupo
(42.1333°N, 12.5000°E)
Time: 16:45:15
(UTC+00:00)

Okean 2 Rocket - Pass Details

Date: 18 September 2020
Orbit: 616 x 642 km, 82.5° (Epoch: 25 October)

Event Time Altitude Azimuth Distance (km) Brightness Sun altitude
Rises 18:01:37 0° 162° (SSE) 2,933 6.2 -9.6°
Reaches altitude 10° 18:04:02 10° 153° (SSE) 2,026 5.3 -10.1°
Maximum altitude 18:08:00 32° 90° (E) 1,103 3.8 -10.8°
Drops below altitude 10° 18:12:00 10° 28° (NNE) 2,030 5.6 -11.5°
Sets 18:14:24 0° 18° (NNE) 2,939 6.5 -12.0°
